Terug naar catalogus

COSMOS 2251 DEB

ActiefLEO
NORAD 35038·DEBRIS·🇷🇺 Russia

Gelanceerd Jun 16, 1993 vanaf Plesetsk Cosmodrome

Loading…

Volgende Passages (komende 24 uur)

TLE

VerouderendSource: Space-Track

Epoch: Sep 12, 2026, 09:18 UTC

1 35038U 93036AHB 26255.38753766  .00001557  00000-0  61079-3 0  9999
2 35038  74.1043 270.1804 0110503 187.3010 237.9609 14.26889472894707

Volg COSMOS 2251 DEB in realtime met AllMySat

Download on the App Store